�N����,�����b,���ԉ��x,�t���O,���Ԏ��x,�t���O,��󒲎�,�t���O,����,�t���O,�����W,�t���O
2003/7/1,0:00:00,26.5,0,57.7,0,25.9,0,23.3,0,28.1,0
2003/7/1,0:15:00,26.4,0,57.5,0,25.9,0,23.3,0,28.1,0
2003/7/1,0:30:00,26.2,0,58.1,0,25.8,0,23.4,0,28,0
2003/7/1,0:45:00,26.4,0,58,0,25.8,0,23.4,0,27.9,0
2003/7/1,1:00:00,26.5,0,58.2,0,26,0,23.7,0,28,0
2003/7/1,1:15:00,26.6,0,58.1,0,26.1,0,23.8,0,28.1,0
2003/7/1,1:30:00,26.7,0,57.7,0,26.2,0,23.8,0,28.2,0
2003/7/1,1:45:00,26.7,0,57.9,0,26.3,0,23.9,0,28.3,0
2003/7/1,2:00:00,26.7,0,57.7,0,26.4,0,23.9,0,28.4,0
2003/7/1,2:15:00,26.7,0,58.8,0,26.4,0,23.6,0,28.3,0
2003/7/1,2:30:00,26.8,0,59.1,0,26.5,0,23.7,0,28.4,0
2003/7/1,2:45:00,26.8,0,58.9,0,26.6,0,23.7,0,28.4,0
2003/7/1,3:00:00,26.9,0,58.9,0,26.6,0,23.7,0,28.4,0
2003/7/1,3:15:00,26.9,0,58.6,0,26.7,0,23.8,0,28.3,0
2003/7/1,3:30:00,26.9,0,58.6,0,26.7,0,23.8,0,28.2,0
2003/7/1,3:45:00,26.9,0,58.6,0,26.7,0,23.9,0,28.2,0
2003/7/1,4:00:00,26.9,0,58.4,0,26.8,0,23.9,0,28.2,0
2003/7/1,4:15:00,27,0,58.4,0,26.8,0,24,0,28.2,0
2003/7/1,4:30:00,27,0,58.7,0,26.8,0,24,0,28.3,0
2003/7/1,4:45:00,27,0,58.5,0,26.9,0,24.1,0,28.3,0
2003/7/1,5:00:00,27,0,58.3,0,26.9,0,24.1,0,28.3,0
2003/7/1,5:15:00,27,0,58.3,0,26.9,0,24.1,0,28.3,0
2003/7/1,5:30:00,27,0,58.2,0,27,0,24.2,0,28.3,0
2003/7/1,5:45:00,27,0,58.2,0,27,0,24.2,0,28.3,0
2003/7/1,6:00:00,27,0,57.7,0,27,0,24.3,0,28.3,0
2003/7/1,6:15:00,27,0,57.5,0,27,0,24.3,0,28.3,0
2003/7/1,6:30:00,27,0,56.9,0,27.1,0,24.3,0,28.4,0
2003/7/1,6:45:00,27.1,0,56.6,0,27.1,0,24.4,0,28.4,0
2003/7/1,7:00:00,27.1,0,57.7,0,27.1,0,24.4,0,28.4,0
2003/7/1,7:15:00,27.2,0,54.2,0,27.2,0,22.4,0,37.1,0
2003/7/1,7:30:00,27.1,0,53.3,0,27.2,0,22.5,0,31.1,0
2003/7/1,7:45:00,27.1,0,52.9,0,27.2,0,22.7,0,29.9,0
2003/7/1,8:00:00,27,0,53.8,0,27.3,0,22.3,0,29.4,0
2003/7/1,8:15:00,27,0,54,0,27.5,0,22.4,0,29.3,0
2003/7/1,8:30:00,27.2,0,55.2,0,27.6,0,22.6,0,29.1,0
2003/7/1,8:45:00,27.2,0,54.8,0,27.5,0,22.7,0,29,0
2003/7/1,9:00:00,27.3,0,54.4,0,27.5,0,22.7,0,28.9,0
2003/7/1,9:15:00,27.3,0,54.3,0,27.5,0,22.8,0,28.8,0
2003/7/1,9:30:00,27.4,0,54.1,0,27.5,0,22.8,0,28.7,0
2003/7/1,9:45:00,27.4,0,53.9,0,27.5,0,22.9,0,28.6,0
2003/7/1,10:00:00,27.6,0,53.3,0,27.5,0,23,0,28.5,0
2003/7/1,10:15:00,27.7,0,53.1,0,27.5,0,23,0,28.6,0
2003/7/1,10:30:00,27.8,0,52.9,0,27.5,0,23.1,0,28.6,0
2003/7/1,10:45:00,27.8,0,52.7,0,27.5,0,23.1,0,28.6,0
2003/7/1,11:00:00,27.8,0,52.4,0,27.5,0,23.2,0,28.6,0
2003/7/1,11:15:00,27.8,0,52.3,0,27.5,0,23.3,0,28.4,0
2003/7/1,11:30:00,27.8,0,52.2,0,27.5,0,23.4,0,28.4,0
2003/7/1,11:45:00,27.7,0,52.1,0,27.5,0,23.4,0,28.5,0
2003/7/1,12:00:00,27.8,0,52,0,27.6,0,23.5,0,28.6,0
2003/7/1,12:15:00,27.8,0,51.9,0,27.6,0,23.5,0,28.6,0
2003/7/1,12:30:00,27.8,0,51.7,0,27.6,0,23.6,0,28.5,0
2003/7/1,12:45:00,27.8,0,52.1,0,27.6,0,23.7,0,28.4,0
2003/7/1,13:00:00,27.8,0,52.1,0,27.6,0,23.7,0,28.5,0
2003/7/1,13:15:00,27.8,0,52.2,0,27.6,0,23.8,0,28.6,0
2003/7/1,13:30:00,27.8,0,52.1,0,27.6,0,23.9,0,28.6,0
2003/7/1,13:45:00,27.8,0,52.1,0,27.6,0,23.9,0,28.6,0
2003/7/1,14:00:00,27.8,0,51.9,0,27.7,0,24,0,28.5,0
2003/7/1,14:15:00,27.8,0,51.7,0,27.7,0,24,0,28.5,0
2003/7/1,14:30:00,27.7,0,51.5,0,27.6,0,24.1,0,28.5,0
2003/7/1,14:45:00,27.6,0,51.4,0,27.6,0,24.2,0,28.5,0
2003/7/1,15:00:00,27.6,0,51.9,0,27.5,0,24.2,0,28.5,0
2003/7/1,15:15:00,27.5,0,52.3,0,27.4,0,24.3,0,28.5,0
2003/7/1,15:30:00,27.5,0,52.5,0,27.4,0,24.3,0,28.4,0
2003/7/1,15:45:00,27.4,0,52.8,0,27.3,0,24.4,0,28.2,0
2003/7/1,16:00:00,27.4,0,53,0,27.2,0,24.4,0,28.3,0
2003/7/1,16:15:00,27.4,0,53.2,0,27.2,0,24.5,0,28.3,0
2003/7/1,16:30:00,27.3,0,53.3,0,27.1,0,24.5,0,28.3,0
2003/7/1,16:45:00,27.3,0,53.3,0,27.1,0,24.6,0,28.3,0
2003/7/1,17:00:00,27.2,0,53.3,0,27,0,24.6,0,28.3,0
2003/7/1,17:15:00,27.2,0,53.3,0,27,0,24.7,0,28.3,0
2003/7/1,17:30:00,27.1,0,53.2,0,26.9,0,24.7,0,28.3,0
2003/7/1,17:45:00,27.1,0,53.2,0,26.9,0,24.7,0,28.2,0
2003/7/1,18:00:00,27,0,52.9,0,26.8,0,24.8,0,28.2,0
2003/7/1,18:15:00,26.9,0,53,0,26.8,0,24.8,0,28.2,0
2003/7/1,18:30:00,26.9,0,53.1,0,26.7,0,24.9,0,28.1,0
2003/7/1,18:45:00,26.9,0,53.2,0,26.7,0,24.9,0,28.1,0
2003/7/1,19:00:00,26.8,0,53.4,0,26.7,0,24.9,0,28.1,0
2003/7/1,19:15:00,26.8,0,52.9,0,26.6,0,22.3,0,28,0
2003/7/1,19:30:00,26.7,0,51.7,0,26.6,0,22.3,0,33.7,0
2003/7/1,19:45:00,26.6,0,51.7,0,26.5,0,22.4,0,39,0
2003/7/1,20:00:00,26.7,0,52.1,0,26.5,0,22.5,0,42.8,0
2003/7/1,20:15:00,26.7,0,52.5,0,26.5,0,22.6,0,38.4,0
2003/7/1,20:30:00,26.8,0,54.5,0,26.6,0,22.6,0,32.7,0
2003/7/1,20:45:00,26.8,0,52.8,0,26.5,0,22.7,0,30.9,0
2003/7/1,21:00:00,26.8,0,52.8,0,26.5,0,22.8,0,30.1,0
2003/7/1,21:15:00,26.7,0,52.4,0,26.5,0,22.8,0,29.7,0
2003/7/1,21:30:00,26.7,0,52.1,0,26.3,0,22.9,0,31,0
2003/7/1,21:45:00,26.6,0,51.7,0,26.1,0,22.9,0,30.4,0
2003/7/1,22:00:00,26.5,0,52.1,0,25.9,0,23,0,29.3,0
2003/7/1,22:15:00,26.4,0,52.1,0,25.8,0,22.8,0,28.9,0
2003/7/1,22:30:00,26.5,0,53,0,25.8,0,22.5,0,28.7,0
2003/7/1,22:45:00,26.6,0,53,0,26,0,22.8,0,28.7,0
2003/7/1,23:00:00,26.5,0,53.7,0,26,0,22.8,0,28.6,0
2003/7/1,23:15:00,26.5,0,54.2,0,26.1,0,22.9,0,28.6,0
2003/7/1,23:30:00,26.5,0,54.8,0,26.1,0,22.9,0,28.6,0
2003/7/1,23:45:00,26.4,0,54.9,0,26.2,0,23,0,28.5,0
2003/7/2,0:00:00,26.4,0,55.5,0,26.2,0,23,0,28.5,0
2003/7/2,0:15:00,26.5,0,55.7,0,26.3,0,23.1,0,28.5,0
2003/7/2,0:30:00,26.4,0,55.2,0,26.3,0,23.1,0,28.5,0
2003/7/2,0:45:00,26.4,0,56.1,0,26.3,0,22.7,0,28.5,0
2003/7/2,1:00:00,26.6,0,56.2,0,26.4,0,22.8,0,28.5,0
2003/7/2,1:15:00,26.6,0,56.3,0,26.4,0,22.8,0,28.5,0
2003/7/2,1:30:00,26.7,0,56.5,0,26.5,0,22.9,0,28.5,0
2003/7/2,1:45:00,26.7,0,56.7,0,26.5,0,22.9,0,28.5,0
2003/7/2,2:00:00,26.7,0,56.5,0,26.5,0,23,0,28.5,0
2003/7/2,2:15:00,26.7,0,56.5,0,26.5,0,23.1,0,28.5,0
2003/7/2,2:30:00,26.7,0,56.3,0,26.6,0,23.1,0,28.5,0
2003/7/2,2:45:00,26.7,0,56.3,0,26.6,0,23.2,0,28.5,0
2003/7/2,3:00:00,26.8,0,56.2,0,26.7,0,23.2,0,28.5,0
2003/7/2,3:15:00,26.8,0,56.1,0,26.7,0,23.3,0,28.5,0
2003/7/2,3:30:00,26.8,0,56,0,26.7,0,23.3,0,28.5,0
2003/7/2,3:45:00,26.8,0,55.9,0,26.7,0,23.4,0,28.5,0
2003/7/2,4:00:00,26.8,0,55.5,0,26.7,0,23.4,0,28.3,0
2003/7/2,4:15:00,26.8,0,55.2,0,26.7,0,23.5,0,28.2,0
2003/7/2,4:30:00,26.8,0,55.2,0,26.8,0,23.5,0,28.3,0
2003/7/2,4:45:00,26.8,0,55.4,0,26.8,0,23.6,0,28.3,0
2003/7/2,5:00:00,26.8,0,55.5,0,26.8,0,23.6,0,28.4,0
2003/7/2,5:15:00,26.8,0,55.4,0,26.8,0,23.7,0,28.4,0
2003/7/2,5:30:00,26.8,0,55.4,0,26.8,0,23.7,0,28.4,0
2003/7/2,5:45:00,26.9,0,56.6,0,26.8,0,23.8,0,28.6,0
2003/7/2,6:00:00,26.9,0,57.2,0,26.9,0,23.8,0,28.7,0
2003/7/2,6:15:00,26.9,0,56.7,0,26.9,0,23.9,0,28.7,0
2003/7/2,6:30:00,26.8,0,54.6,0,26.9,0,23,0,28.7,0
2003/7/2,6:45:00,26.8,0,53.4,0,26.9,0,23,0,28.7,0
2003/7/2,7:00:00,26.8,0,52.7,0,26.9,0,23.1,0,28.7,0
2003/7/2,7:15:00,26.7,0,52.7,0,26.9,0,22.2,0,39.4,0
2003/7/2,7:30:00,26.8,0,54.1,0,26.9,0,22.2,0,36.3,0
2003/7/2,7:45:00,26.9,0,53.8,0,26.9,0,22.2,0,32.8,0
2003/7/2,8:00:00,26.6,0,49.3,0,27,0,22.1,0,30.6,0
2003/7/2,8:15:00,26.5,0,50.5,0,27.1,0,22.1,0,29.9,0
2003/7/2,8:30:00,26.8,0,51.7,0,27.2,0,22.5,0,29.6,0
2003/7/2,8:45:00,26.9,0,51.3,0,27.1,0,22.5,0,29.4,0
2003/7/2,9:00:00,27,0,51.1,0,27.1,0,22.6,0,29.3,0
2003/7/2,9:15:00,27.1,0,50.9,0,27,0,22.6,0,29.2,0
2003/7/2,9:30:00,27.2,0,50.2,0,27,0,22.7,0,29.1,0
2003/7/2,9:45:00,27.3,0,50.1,0,27,0,22.7,0,29,0
2003/7/2,10:00:00,27.3,0,49.6,0,27,0,22.8,0,28.9,0
2003/7/2,10:15:00,27.4,0,49.8,0,27.1,0,22.9,0,29,0
2003/7/2,10:30:00,27.4,0,49.3,0,27.1,0,22.9,0,29,0
2003/7/2,10:45:00,27.5,0,49.1,0,27.1,0,23,0,29,0
2003/7/2,11:00:00,27.5,0,49,0,27.1,0,23,0,28.9,0
2003/7/2,11:15:00,27.5,0,48.8,0,27.1,0,23.1,0,28.9,0
2003/7/2,11:30:00,27.5,0,48.7,0,27.1,0,23.1,0,28.9,0
2003/7/2,11:45:00,27.5,0,48.5,0,27.1,0,23.2,0,28.9,0
2003/7/2,12:00:00,27.5,0,48.5,0,27.1,0,23.3,0,28.9,0
2003/7/2,12:15:00,27.5,0,48.2,0,27.1,0,23.3,0,28.9,0
2003/7/2,12:30:00,27.6,0,48.1,0,27.1,0,23.4,0,28.9,0
2003/7/2,12:45:00,27.6,0,47.7,0,27.1,0,23.4,0,28.8,0
2003/7/2,13:00:00,27.5,0,48,0,27,0,23.5,0,28.7,0
2003/7/2,13:15:00,27.5,0,48.1,0,27,0,23.5,0,28.7,0
2003/7/2,13:30:00,27.4,0,48.4,0,26.9,0,23.6,0,28.7,0
2003/7/2,13:45:00,27.4,0,48.5,0,26.9,0,23.7,0,28.7,0
2003/7/2,14:00:00,27.3,0,48.6,0,26.8,0,23.7,0,28.7,0
2003/7/2,14:15:00,27.3,0,48.6,0,26.8,0,23.8,0,28.6,0
2003/7/2,14:30:00,27.3,0,48.6,0,26.8,0,23.8,0,28.6,0
2003/7/2,14:45:00,27.4,0,48.6,0,26.7,0,23.9,0,28.6,0
2003/7/2,15:00:00,27.4,0,48.5,0,26.7,0,23.9,0,28.7,0
2003/7/2,15:15:00,27.4,0,48.6,0,26.7,0,24,0,28.7,0
2003/7/2,15:30:00,27.3,0,48.5,0,26.7,0,24,0,28.7,0
2003/7/2,15:45:00,27.3,0,49,0,26.7,0,23.7,0,28.6,0
2003/7/2,16:00:00,27.3,0,48.5,0,26.6,0,23.7,0,28.4,0
2003/7/2,16:15:00,27.2,0,48.3,0,26.6,0,23.8,0,28.3,0
2003/7/2,16:30:00,27.2,0,48.2,0,26.6,0,23.8,0,28.2,0
2003/7/2,16:45:00,27.2,0,48.3,0,26.6,0,23.9,0,28.2,0
2003/7/2,17:00:00,27.2,0,48.4,0,26.5,0,23.9,0,28.2,0
2003/7/2,17:15:00,27.2,0,48.4,0,26.5,0,24,0,28.2,0
2003/7/2,17:30:00,27.2,0,48.4,0,26.5,0,24,0,28.2,0
2003/7/2,17:45:00,27.2,0,48.2,0,26.5,0,24.1,0,28.1,0
2003/7/2,18:00:00,27.2,0,48.2,0,26.5,0,24.1,0,28.1,0
2003/7/2,18:15:00,27.2,0,48.2,0,26.4,0,24.2,0,28.2,0
2003/7/2,18:30:00,27.1,0,48.3,0,26.5,0,23.6,0,38.9,0
2003/7/2,18:45:00,27,0,47.6,0,26.4,0,23.6,0,39,0
2003/7/2,19:00:00,26.9,0,47.5,0,26.2,0,23.7,0,45.4,0
2003/7/2,19:15:00,26.8,0,48.1,0,26.1,0,23.7,0,39.8,0
2003/7/2,19:30:00,26.8,0,47.2,0,25.9,0,22.9,0,33.1,0
2003/7/2,19:45:00,26.8,0,47.5,0,25.8,0,22.9,0,31.7,0
2003/7/2,20:00:00,26.8,0,47.1,0,25.7,0,23,0,30,0
2003/7/2,20:15:00,26.7,0,47.5,0,25.6,0,23.1,0,29.4,0
2003/7/2,20:30:00,26.7,0,48,0,25.6,0,23.1,0,33.4,0
2003/7/2,20:45:00,26.8,0,48,0,25.6,0,23.2,0,29.8,0
2003/7/2,21:00:00,26.7,0,47.7,0,25.7,0,23.2,0,29.1,0
2003/7/2,21:15:00,26.7,0,48.2,0,25.7,0,23.3,0,28.9,0
2003/7/2,21:30:00,26.7,0,48.1,0,25.8,0,23.3,0,28.8,0
2003/7/2,21:45:00,26.7,0,48.6,0,25.7,0,22.8,0,28.7,0
2003/7/2,22:00:00,26.5,0,48.4,0,25.6,0,22.8,0,28.6,0
2003/7/2,22:15:00,26.6,0,50.8,0,25.6,0,22.9,0,28.5,0
2003/7/2,22:30:00,26.6,0,50.1,0,25.5,0,22.7,0,28.4,0
2003/7/2,22:45:00,26.6,0,48.4,0,25.5,0,22.4,0,28.4,0
2003/7/2,23:00:00,26.5,0,47.2,0,25.7,0,22.4,0,28.4,0
2003/7/2,23:15:00,26,0,48.4,0,25.6,0,22.5,0,28.3,0
2003/7/2,23:30:00,26,0,47.8,0,25.6,0,22.5,0,28.2,0
2003/7/2,23:45:00,26.1,0,48.1,0,25.5,0,22.6,0,28.1,0
2003/7/3,0:00:00,25.9,0,48.4,0,25.5,0,22.6,0,28,0
2003/7/3,0:15:00,25.8,0,49.4,0,25.5,0,22.7,0,27.9,0
2003/7/3,0:30:00,25.4,0,50.7,0,25.3,0,23,0,27.8,0
2003/7/3,0:45:00,25.8,0,51.7,0,25.4,0,23,0,27.7,0
2003/7/3,1:00:00,26,0,52,0,25.5,0,23,0,27.8,0
2003/7/3,1:15:00,26,0,52,0,25.6,0,23.1,0,27.8,0
2003/7/3,1:30:00,26.1,0,52,0,25.6,0,23.2,0,27.8,0
2003/7/3,1:45:00,26.2,0,51.8,0,25.6,0,23.2,0,27.7,0
2003/7/3,2:00:00,26.2,0,51.9,0,25.7,0,23.2,0,27.7,0
2003/7/3,2:15:00,26.3,0,51.7,0,25.7,0,23.3,0,27.7,0
2003/7/3,2:30:00,26.3,0,51.7,0,25.7,0,23.3,0,27.7,0
2003/7/3,2:45:00,26.4,0,51.6,0,25.8,0,23.4,0,27.7,0
2003/7/3,3:00:00,26.4,0,51.5,0,25.8,0,23.4,0,27.8,0
2003/7/3,3:15:00,26.4,0,51.5,0,25.8,0,23.4,0,27.8,0
2003/7/3,3:30:00,26.4,0,51.6,0,25.8,0,23.5,0,27.7,0
2003/7/3,3:45:00,26.4,0,51.5,0,25.8,0,23.5,0,27.7,0
2003/7/3,4:00:00,26.5,0,51.5,0,25.8,0,23.6,0,27.7,0
2003/7/3,4:15:00,26.5,0,51.5,0,25.9,0,23.6,0,27.7,0
2003/7/3,4:30:00,26.5,0,51.5,0,25.9,0,23.7,0,27.8,0
2003/7/3,4:45:00,26.5,0,51.6,0,25.9,0,23.7,0,27.8,0
2003/7/3,5:00:00,26.5,0,51.8,0,25.9,0,23.8,0,27.8,0
2003/7/3,5:15:00,26.5,0,52,0,25.9,0,23.8,0,27.8,0
2003/7/3,5:30:00,26.5,0,51.9,0,25.9,0,23.9,0,27.9,0
2003/7/3,5:45:00,26.5,0,51.9,0,25.9,0,23.9,0,27.9,0
2003/7/3,6:00:00,26.6,0,52,0,25.9,0,23.9,0,27.8,0
2003/7/3,6:15:00,26.5,0,52.1,0,26,0,24,0,27.9,0
2003/7/3,6:30:00,26.6,0,53.6,0,26,0,23.5,0,27.9,0
2003/7/3,6:45:00,26.7,0,52.8,0,26.1,0,22.6,0,27.8,0
2003/7/3,7:00:00,26.8,0,52,0,26.1,0,22.7,0,27.9,0
2003/7/3,7:15:00,26.6,0,49.5,0,26.2,0,22.5,0,33.1,0
2003/7/3,7:30:00,26.6,0,48.5,0,26.3,0,22.6,0,32.8,0
2003/7/3,7:45:00,26.7,0,48,0,26.4,0,22.1,0,30.5,0
2003/7/3,8:00:00,26.5,0,47.4,0,26.4,0,22.1,0,29.5,0
2003/7/3,8:15:00,26.7,0,48,0,26.6,0,22.1,0,29.2,0
2003/7/3,8:30:00,26.9,0,48.9,0,26.7,0,22.4,0,28.9,0
2003/7/3,8:45:00,27,0,48.8,0,26.6,0,22.5,0,28.7,0
2003/7/3,9:00:00,27.1,0,49,0,26.6,0,22.5,0,28.6,0
2003/7/3,9:15:00,27.2,0,48.9,0,26.6,0,22.6,0,28.7,0
2003/7/3,9:30:00,27.2,0,48.9,0,26.6,0,22.6,0,28.6,0
2003/7/3,9:45:00,27.3,0,48.7,0,26.7,0,22.7,0,28.6,0
2003/7/3,10:00:00,27.3,0,48.3,0,26.7,0,22.7,0,28.6,0
2003/7/3,10:15:00,27.4,0,47.9,0,26.7,0,22.8,0,28.5,0
2003/7/3,10:30:00,27.4,0,47.6,0,26.7,0,22.8,0,28.6,0
2003/7/3,10:45:00,27.4,0,47.6,0,26.7,0,22.9,0,28.6,0
2003/7/3,11:00:00,27.5,0,47.2,0,26.7,0,23,0,28.6,0
2003/7/3,11:15:00,27.6,0,46.9,0,26.8,0,23,0,28.6,0
2003/7/3,11:30:00,27.7,0,46.7,0,26.8,0,23.1,0,28.7,0
2003/7/3,11:45:00,27.7,0,46.5,0,26.8,0,23.1,0,28.7,0
2003/7/3,12:00:00,27.8,0,46.4,0,26.8,0,23.2,0,28.7,0
2003/7/3,12:15:00,27.8,0,46.5,0,26.9,0,23.2,0,28.6,0
2003/7/3,12:30:00,27.7,0,46.4,0,26.9,0,23.3,0,28.6,0
2003/7/3,12:45:00,27.7,0,46.5,0,26.9,0,23.3,0,28.6,0
2003/7/3,13:00:00,27.7,0,46.4,0,27,0,23.4,0,28.7,0
2003/7/3,13:15:00,27.7,0,46.3,0,27,0,23.5,0,28.7,0
2003/7/3,13:30:00,27.7,0,46.3,0,27,0,23.5,0,28.7,0
2003/7/3,13:45:00,27.7,0,46.3,0,27,0,23.6,0,28.6,0
2003/7/3,14:00:00,27.7,0,46.4,0,27,0,23.6,0,28.6,0
2003/7/3,14:15:00,27.6,0,46.2,0,27,0,23.7,0,28.6,0
2003/7/3,14:30:00,27.6,0,46.4,0,27,0,23.7,0,28.6,0
2003/7/3,14:45:00,27.5,0,46.2,0,27,0,23.8,0,28.7,0
2003/7/3,15:00:00,27.5,0,46.1,0,27,0,23.8,0,28.7,0
2003/7/3,15:15:00,27.5,0,46,0,27,0,23.9,0,28.6,0
2003/7/3,15:30:00,27.4,0,46,0,27,0,23.9,0,28.5,0
2003/7/3,15:45:00,27.4,0,46,0,27,0,24,0,28.5,0
2003/7/3,16:00:00,27.4,0,46.2,0,27,0,24,0,28.5,0
2003/7/3,16:15:00,27.3,0,46.5,0,27,0,24.1,0,28.5,0
2003/7/3,16:30:00,27.3,0,46.5,0,27,0,24.1,0,28.5,0
2003/7/3,16:45:00,27.2,0,47.6,0,26.9,0,24.2,0,28.4,0
2003/7/3,17:00:00,27.2,0,48.1,0,26.8,0,24.2,0,28.4,0
2003/7/3,17:15:00,27.1,0,48.8,0,26.8,0,24.3,0,28.4,0
2003/7/3,17:30:00,27.1,0,49,0,26.7,0,24.3,0,28.3,0
2003/7/3,17:45:00,27.1,0,49.3,0,26.7,0,24.4,0,28.3,0
2003/7/3,18:00:00,27.1,0,49.5,0,26.7,0,24.4,0,28.3,0
2003/7/3,18:15:00,27,0,49.8,0,26.6,0,24.4,0,28.3,0
2003/7/3,18:30:00,27,0,49.9,0,26.6,0,24.5,0,28.3,0
2003/7/3,18:45:00,27,0,50.1,0,26.5,0,24.5,0,28.2,0
2003/7/3,19:00:00,27,0,50.2,0,26.5,0,24.6,0,28.2,0
2003/7/3,19:15:00,26.9,0,50.4,0,26.5,0,23.3,0,28.1,0
2003/7/3,19:30:00,26.9,0,50.4,0,26.5,0,23.2,0,28.1,0
2003/7/3,19:45:00,26.9,0,51.9,0,26.4,0,23.2,0,28.2,0
2003/7/3,20:00:00,26.9,0,54,0,26.4,0,23.3,0,28.2,0
2003/7/3,20:15:00,26.9,0,55,0,26.4,0,23.3,0,28.3,0
2003/7/3,20:30:00,26.9,0,57.5,0,26.5,0,22.8,0,36.2,0
2003/7/3,20:45:00,26.9,0,56.2,0,26.6,0,22.4,0,30.8,0
2003/7/3,21:00:00,26.8,0,55.7,0,26.7,0,22.4,0,29.5,0
2003/7/3,21:15:00,26.6,0,55.4,0,26.6,0,22.5,0,29,0
2003/7/3,21:30:00,26.3,0,56.7,0,26.3,0,22.6,0,33.6,0
2003/7/3,21:45:00,26.8,0,55.8,0,26.5,0,22.7,0,29.6,0
2003/7/3,22:00:00,26.9,0,56.1,0,26.7,0,22.7,0,28.8,0
2003/7/3,22:15:00,27,0,55.3,0,26.8,0,22.8,0,28.6,0
2003/7/3,22:30:00,26.5,0,57.1,0,26.6,0,22.6,0,28.3,0
2003/7/3,22:45:00,26.1,0,58.6,0,26.4,0,22.6,0,28.2,0
2003/7/3,23:00:00,26.2,0,58.4,0,26.5,0,23,0,28.3,0
2003/7/3,23:15:00,26.2,0,57.8,0,26.6,0,22.8,0,28.4,0
2003/7/3,23:30:00,26.5,0,56.6,0,26.7,0,22.7,0,28.5,0
2003/7/3,23:45:00,26.7,0,55.7,0,26.8,0,22.8,0,28.6,0
2003/7/4,0:00:00,26.7,0,55.3,0,26.8,0,22.8,0,28.6,0
2003/7/4,0:15:00,26.7,0,54.8,0,26.8,0,22.9,0,28.6,0
2003/7/4,0:30:00,26.8,0,54.7,0,26.9,0,22.9,0,28.6,0
2003/7/4,0:45:00,26.8,0,55,0,26.9,0,23,0,28.5,0
2003/7/4,1:00:00,26.7,0,55.1,0,26.9,0,23.1,0,28.4,0
2003/7/4,1:15:00,26.7,0,55.3,0,26.9,0,23.1,0,28.4,0
2003/7/4,1:30:00,26.7,0,54.6,0,26.9,0,23.1,0,28.4,0
2003/7/4,1:45:00,26.7,0,54.6,0,27,0,23.2,0,28.5,0
2003/7/4,2:00:00,26.7,0,54.9,0,27,0,23.2,0,28.5,0
2003/7/4,2:15:00,26.7,0,54.4,0,27,0,23.3,0,28.5,0
2003/7/4,2:30:00,26.7,0,54.3,0,27,0,23.4,0,28.4,0
2003/7/4,2:45:00,26.7,0,54.3,0,27,0,23.4,0,28.4,0
2003/7/4,3:00:00,26.6,0,54.1,0,27,0,23.5,0,28.3,0
2003/7/4,3:15:00,26.6,0,53.8,0,27,0,23.5,0,28.3,0
2003/7/4,3:30:00,26.6,0,53.7,0,27,0,23.6,0,28.3,0
2003/7/4,3:45:00,26.5,0,53.5,0,27,0,23.6,0,28.4,0
2003/7/4,4:00:00,26.5,0,53.8,0,27,0,23.6,0,28.4,0
2003/7/4,4:15:00,26.5,0,54,0,27,0,23.7,0,28.4,0
2003/7/4,4:30:00,26.6,0,54.1,0,27,0,23.8,0,28.4,0
2003/7/4,4:45:00,26.6,0,54.2,0,27,0,23.8,0,28.3,0
2003/7/4,5:00:00,26.6,0,54.7,0,27.1,0,23.9,0,28.3,0
2003/7/4,5:15:00,26.7,0,55.1,0,27.1,0,23.9,0,28.4,0
2003/7/4,5:30:00,26.7,0,55.6,0,27.1,0,24,0,28.4,0
2003/7/4,5:45:00,26.7,0,56.6,0,27.1,0,24,0,28.6,0
2003/7/4,6:00:00,26.8,0,58,0,27.2,0,24.1,0,28.8,0
2003/7/4,6:15:00,26.8,0,58.1,0,27.2,0,24.1,0,28.7,0
2003/7/4,6:30:00,26.7,0,57.8,0,27.2,0,24.1,0,28.7,0
2003/7/4,6:45:00,26.7,0,59,0,27.2,0,22.7,0,28.7,0
2003/7/4,7:00:00,26.7,0,59.4,0,27.2,0,22.6,0,28.7,0
2003/7/4,7:15:00,26.5,0,60.3,0,27.2,0,22.6,0,34.3,0
2003/7/4,7:30:00,26.3,0,62.1,0,27.2,0,22.2,0,33.9,0
2003/7/4,7:45:00,26.1,0,62.2,0,27.1,0,22.2,0,30.8,0
2003/7/4,8:00:00,25.9,0,62.9,0,27.1,0,22.1,0,29.9,0
2003/7/4,8:15:00,25.9,0,63.8,0,27.2,0,22.2,0,38.5,0
2003/7/4,8:30:00,26.5,0,62.8,0,27.4,0,22.5,0,33.6,0
2003/7/4,8:45:00,26.7,0,60.9,0,27.3,0,22.6,0,31.6,0
2003/7/4,9:00:00,26.8,0,60,0,27.3,0,22.6,0,30.8,0
2003/7/4,9:15:00,26.9,0,59.4,0,27.3,0,22.7,0,30.2,0
2003/7/4,9:30:00,26.9,0,59.1,0,27.4,0,22.7,0,29.8,0
2003/7/4,9:45:00,26.9,0,58.8,0,27.4,0,22.8,0,29.6,0
2003/7/4,10:00:00,27,0,58.4,0,27.4,0,22.9,0,29.4,0
2003/7/4,10:15:00,27,0,57.8,0,27.5,0,22.9,0,29.2,0
2003/7/4,10:30:00,27,0,57.2,0,27.5,0,23,0,29,0
2003/7/4,10:45:00,27,0,56.5,0,27.6,0,23,0,28.9,0
2003/7/4,11:00:00,26.9,0,55.9,0,27.6,0,23.1,0,28.8,0
2003/7/4,11:15:00,27,0,55.4,0,27.6,0,23.2,0,28.7,0
2003/7/4,11:30:00,27,0,54.9,0,27.5,0,23.2,0,28.6,0
2003/7/4,11:45:00,26.9,0,54.5,0,27.5,0,23.3,0,28.6,0
2003/7/4,12:00:00,26.9,0,54.2,0,27.5,0,23.3,0,28.6,0
2003/7/4,12:15:00,26.9,0,54,0,27.5,0,23.4,0,28.5,0
2003/7/4,12:30:00,26.9,0,53.8,0,27.5,0,23.5,0,28.5,0
2003/7/4,12:45:00,26.9,0,53.6,0,27.5,0,23.5,0,28.5,0
2003/7/4,13:00:00,26.9,0,53.5,0,27.5,0,23.6,0,28.4,0
2003/7/4,13:15:00,26.9,0,53.3,0,27.4,0,23.6,0,28.4,0
2003/7/4,13:30:00,26.9,0,53.1,0,27.4,0,23.7,0,28.4,0
2003/7/4,13:45:00,26.9,0,53,0,27.4,0,23.8,0,28.4,0
2003/7/4,14:00:00,26.9,0,52.9,0,27.4,0,23.8,0,28.4,0
2003/7/4,14:15:00,27,0,53,0,27.4,0,23.9,0,28.4,0
2003/7/4,14:30:00,26.9,0,52.9,0,27.4,0,24,0,28.2,0
2003/7/4,14:45:00,26.9,0,52.7,0,27.4,0,24,0,28.2,0
2003/7/4,15:00:00,26.9,0,52.6,0,27.4,0,24.1,0,28.2,0
2003/7/4,15:15:00,26.8,0,52.7,0,27.4,0,24.1,0,28.2,0
2003/7/4,15:30:00,26.8,0,52.7,0,27.3,0,24.2,0,28.2,0
2003/7/4,15:45:00,26.8,0,52.6,0,27.3,0,24.2,0,28.3,0
2003/7/4,16:00:00,26.7,0,52.5,0,27.3,0,24.3,0,28.3,0
2003/7/4,16:15:00,26.7,0,52.5,0,27.3,0,24.3,0,28.2,0
2003/7/4,16:30:00,26.7,0,52.5,0,27.3,0,24.4,0,28.1,0
2003/7/4,16:45:00,26.7,0,52.5,0,27.3,0,24.4,0,28.1,0
2003/7/4,17:00:00,26.7,0,52.7,0,27.3,0,24.5,0,28.2,0
2003/7/4,17:15:00,26.7,0,52.8,0,27.2,0,24.5,0,28.2,0
2003/7/4,17:30:00,26.6,0,53,0,27.2,0,24.6,0,28.2,0
2003/7/4,17:45:00,26.6,0,53,0,27.2,0,24.6,0,28.2,0
2003/7/4,18:00:00,26.6,0,53.5,0,27.2,0,24.7,0,28.2,0
2003/7/4,18:15:00,26.6,0,55.3,0,27.2,0,24.7,0,28.2,0
2003/7/4,18:30:00,26.7,0,54.7,0,27.2,0,23.2,0,28.4,0
2003/7/4,18:45:00,26.8,0,54.3,0,27.3,0,23.2,0,28.4,0
2003/7/4,19:00:00,26.9,0,53.7,0,27.3,0,23.3,0,28.5,0
2003/7/4,19:15:00,26.9,0,53.3,0,27.3,0,23.3,0,28.5,0
2003/7/4,19:30:00,26.9,0,53.1,0,27.3,0,23.4,0,28.5,0
2003/7/4,19:45:00,26.7,0,54,0,27.2,0,23.5,0,41,0
2003/7/4,20:00:00,26.4,0,53.7,0,27.2,0,22.8,0,35.9,0
2003/7/4,20:15:00,26.3,0,53.6,0,27.1,0,22.6,0,34.5,0
2003/7/4,20:30:00,26.2,0,53.2,0,27.2,0,22.6,0,31.6,0
2003/7/4,20:45:00,26.1,0,53.2,0,27.3,0,22.7,0,30.4,0
2003/7/4,21:00:00,26.1,0,53.2,0,27,0,22.9,0,29.8,0
2003/7/4,21:15:00,26.3,0,51.6,0,26.9,0,23,0,29.5,0
2003/7/4,21:30:00,26.2,0,51.6,0,26.8,0,23,0,29.1,0
2003/7/4,21:45:00,26,0,53,0,26.7,0,23.1,0,28.9,0
2003/7/4,22:00:00,26,0,53,0,26.6,0,23.1,0,28.7,0
2003/7/4,22:15:00,25.9,0,53.6,0,26.6,0,23.2,0,28.7,0
2003/7/4,22:30:00,25.8,0,54.7,0,26.5,0,23.2,0,28.6,0
2003/7/4,22:45:00,25.9,0,55.7,0,26.6,0,23.3,0,28.5,0
2003/7/4,23:00:00,26.3,0,54.5,0,26.6,0,22.5,0,28.6,0
2003/7/4,23:15:00,26.4,0,53.9,0,26.6,0,22.6,0,28.7,0
2003/7/4,23:30:00,26.5,0,53.7,0,26.7,0,22.5,0,28.7,0
2003/7/4,23:45:00,26.5,0,53.6,0,26.7,0,22.6,0,28.6,0
2003/7/5,0:00:00,26.5,0,52.8,0,26.7,0,22.6,0,28.6,0
2003/7/5,0:15:00,26.5,0,53,0,26.6,0,22.7,0,28.6,0
2003/7/5,0:30:00,26.5,0,53.2,0,26.6,0,22.7,0,28.5,0
2003/7/5,0:45:00,26.5,0,54.8,0,26.5,0,22.8,0,28.5,0
2003/7/5,1:00:00,26.6,0,55.3,0,26.6,0,22.8,0,28.5,0
2003/7/5,1:15:00,26.7,0,55.7,0,26.6,0,23.2,0,28.5,0
2003/7/5,1:30:00,26.7,0,55.9,0,26.6,0,23.1,0,28.4,0
2003/7/5,1:45:00,26.7,0,56.4,0,26.7,0,23.2,0,28.4,0
2003/7/5,2:00:00,26.7,0,56.5,0,26.7,0,23.3,0,28.4,0
2003/7/5,2:15:00,26.7,0,56.8,0,26.6,0,23.4,0,28.3,0
2003/7/5,2:30:00,26.7,0,57.1,0,26.6,0,23.4,0,28.3,0
2003/7/5,2:45:00,26.7,0,57.1,0,26.6,0,23.5,0,28.3,0
2003/7/5,3:00:00,26.7,0,57.4,0,26.6,0,23.5,0,28.3,0
2003/7/5,3:15:00,26.7,0,57.4,0,26.6,0,23.5,0,28.3,0
2003/7/5,3:30:00,26.7,0,57.3,0,26.6,0,23.6,0,28.3,0
2003/7/5,3:45:00,26.7,0,57.2,0,26.5,0,23.6,0,28.2,0
2003/7/5,4:00:00,26.7,0,57.4,0,26.5,0,23.7,0,28.2,0
2003/7/5,4:15:00,26.6,0,57.4,0,26.5,0,23.7,0,28.2,0
2003/7/5,4:30:00,26.6,0,57.7,0,26.5,0,23.8,0,28.2,0
2003/7/5,4:45:00,26.6,0,57.7,0,26.5,0,23.9,0,28.2,0
2003/7/5,5:00:00,26.6,0,57.5,0,26.5,0,23.9,0,28.2,0
2003/7/5,5:15:00,26.6,0,57.4,0,26.5,0,24,0,28.2,0
2003/7/5,5:30:00,26.6,0,57.3,0,26.5,0,24,0,28.2,0
2003/7/5,5:45:00,26.6,0,57.3,0,26.5,0,24,0,28.2,0
2003/7/5,6:00:00,26.6,0,57.2,0,26.5,0,24.1,0,28.2,0
2003/7/5,6:15:00,26.5,0,53.5,0,26.4,0,23.4,0,28.1,0
2003/7/5,6:30:00,26.2,0,53.2,0,26.4,0,23.5,0,33.8,0
2003/7/5,6:45:00,26,0,54,0,26.5,0,23.5,0,32.8,0
2003/7/5,7:00:00,26.1,0,53.3,0,26.5,0,23.6,0,30.8,0
2003/7/5,7:15:00,26.1,0,51.9,0,26.6,0,23.6,0,34,0
2003/7/5,7:30:00,26.2,0,52.8,0,26.6,0,22.4,0,30.9,0
2003/7/5,7:45:00,26.2,0,52.3,0,26.7,0,22.5,0,29.6,0
2003/7/5,8:00:00,26.3,0,51.4,0,26.7,0,22.6,0,29.1,0
2003/7/5,8:15:00,26.3,0,50.1,0,26.7,0,22.3,0,28.8,0
2003/7/5,8:30:00,26.5,0,50.3,0,26.7,0,22.3,0,28.8,0
2003/7/5,8:45:00,26.5,0,50.6,0,26.7,0,22.4,0,28.7,0
2003/7/5,9:00:00,26.4,0,50,0,26.7,0,22.1,0,28.6,0
2003/7/5,9:15:00,26.4,0,49.2,0,26.6,0,22.1,0,28.6,0
2003/7/5,9:30:00,26.3,0,48.6,0,26.6,0,22.2,0,28.6,0
2003/7/5,9:45:00,26,0,49.1,0,26.6,0,22.3,0,28.4,0
2003/7/5,10:00:00,25.6,0,49.7,0,26.5,0,22.5,0,27.7,0
2003/7/5,10:15:00,25.5,0,50.5,0,26.5,0,22.5,0,27.7,0
2003/7/5,10:30:00,25.5,0,49.9,0,26.4,0,22.6,0,27.8,0
2003/7/5,10:45:00,26,0,50.5,0,26.4,0,22.7,0,27.9,0
2003/7/5,11:00:00,26.4,0,50.6,0,26.4,0,22.7,0,28,0
2003/7/5,11:15:00,26.6,0,50.9,0,26.4,0,22.7,0,27.9,0
2003/7/5,11:30:00,26.7,0,51.1,0,26.5,0,22.8,0,28,0
2003/7/5,11:45:00,26.9,0,51,0,26.5,0,22.8,0,28,0
2003/7/5,12:00:00,27,0,51.1,0,26.5,0,22.9,0,28.1,0
2003/7/5,12:15:00,27,0,51,0,26.5,0,22.9,0,28,0
2003/7/5,12:30:00,27,0,50.9,0,26.5,0,23,0,28,0
2003/7/5,12:45:00,27.1,0,51,0,26.5,0,23,0,28.1,0
2003/7/5,13:00:00,27.1,0,51,0,26.5,0,23.1,0,28.1,0
2003/7/5,13:15:00,27.1,0,51.1,0,26.5,0,23.1,0,28.1,0
2003/7/5,13:30:00,27.2,0,50.7,0,26.5,0,23.2,0,28,0
2003/7/5,13:45:00,27.2,0,50.6,0,26.6,0,23.2,0,28.1,0
2003/7/5,14:00:00,27.2,0,50.4,0,26.6,0,23.3,0,28.1,0
2003/7/5,14:15:00,27.3,0,50.2,0,26.6,0,23.4,0,28.2,0
2003/7/5,14:30:00,27.3,0,50.1,0,26.6,0,23.4,0,28.2,0
2003/7/5,14:45:00,27.3,0,50.1,0,26.6,0,23.5,0,28.2,0
2003/7/5,15:00:00,27.3,0,49.8,0,26.6,0,23.5,0,28.2,0
2003/7/5,15:15:00,27.3,0,49.5,0,26.6,0,23.6,0,28.3,0
2003/7/5,15:30:00,27.2,0,49.7,0,26.6,0,23.6,0,28.3,0
2003/7/5,15:45:00,27.2,0,49.8,0,26.6,0,23.7,0,28.3,0
2003/7/5,16:00:00,27.2,0,49.7,0,26.6,0,23.7,0,28.3,0
2003/7/5,16:15:00,27.2,0,49.9,0,26.6,0,23.8,0,28.3,0
2003/7/5,16:30:00,27.2,0,50.1,0,26.6,0,23.8,0,28.3,0
2003/7/5,16:45:00,27.2,0,50.3,0,26.6,0,23.9,0,28.3,0
2003/7/5,17:00:00,26.9,0,50.6,0,26.3,0,23.3,0,32.2,0
2003/7/5,17:15:00,26.8,0,52,0,26,0,22.4,0,35,0